Creek Data

    Home     View Charts     View Raw Data     Messages

ID Distance Battery Voltage Battery Current Internal Temp Internal Humidity External Temp Solar Input rssi snr Time Stamp Record
32666 12.8 3.74 -5 53 41 54 0 -77 8 02/17/2025 06:15 PM 14338
32665 12.8 3.81 -5 55 41 55 1.7 -77 8 02/17/2025 06:00 PM 14337
32664 12.8 3.76 0 57 41 56 4.5 -77 8 02/17/2025 05:45 PM 14336
32663 12.8 3.83 5 59 40 57 4.5 -77 7 02/17/2025 05:30 PM 14335
32662 12.8 3.86 0 59 41 57 4.5 -77 7 02/17/2025 05:15 PM 14334
32661 12.8 3.73 0 62 40 58 5.1 -77 8 02/17/2025 05:00 PM 14333
32660 12.8 3.74 0 62 40 59 5.1 -77 8 02/17/2025 04:45 PM 14332
32659 12.8 3.80 0 63 41 59 5.1 -77 8 02/17/2025 04:30 PM 14331
32658 12.8 3.74 0 64 40 60 5.1 -77 8 02/17/2025 04:15 PM 14330
32657 12.8 3.73 0 67 40 60 5.1 -77 8 02/17/2025 04:00 PM 14329
32656 12.8 3.73 0 70 38 61 5.1 -77 8 02/17/2025 03:45 PM 14328
32655 12.9 3.73 0 73 37 62 5.1 -77 8 02/17/2025 03:30 PM 14327
32654 12.9 3.73 0 74 35 62 5.1 -77 8 02/17/2025 03:15 PM 14326
32653 12.9 3.75 0 72 36 61 5.1 -77 8 02/17/2025 03:00 PM 14325
32652 12.9 3.75 0 69 38 61 5.1 -77 8 02/17/2025 02:45 PM 14324
32651 12.9 3.75 0 69 37 60 5.1 -77 7 02/17/2025 02:30 PM 14323
32650 12.9 3.75 0 72 35 60 5.1 -77 7 02/17/2025 02:15 PM 14322
32649 12.9 3.75 0 71 35 60 5.1 -78 7 02/17/2025 02:00 PM 14321
32648 12.9 3.75 0 70 35 61 5.1 -77 8 02/17/2025 01:45 PM 14320
32647 12.9 3.78 0 67 36 59 5.1 -77 8 02/17/2025 01:30 PM 14319
32646 12.9 3.75 0 66 36 58 5.1 -78 8 02/17/2025 01:15 PM 14318
32645 12.9 4.06 0 65 36 58 5.1 -78 6 02/17/2025 01:00 PM 14317
32644 12.9 3.98 0 65 37 59 5.1 -79 8 02/17/2025 12:45 PM 14316
32643 12.9 3.74 0 65 36 57 5.1 -79 8 02/17/2025 12:30 PM 14315
32642 12.9 4.03 0 67 34 59 5.1 -79 8 02/17/2025 12:15 PM 14314